This is the latest recevied weather packets stored in our database for station/object DC1MBB-9. If no packets are shown the sender has not sent any weather packets the latest 10 day(s).
| Time | Temp. | Humidity | Pressure | Rain* | Wind** | Luminosity | Snow |
|---|---|---|---|---|---|---|---|
| 1777791921 | 18.89° C | 45% | 958 hPa | - | - | - | - |
| 1777791560 | 18.33° C | 45% | 958 hPa | - | - | - | - |
| 1777791199 | 17.78° C | 46% | 958 hPa | - | - | - | - |
| 1777790839 | 17.78° C | 47% | 958 hPa | - | - | - | - |
| 1777790478 | 17.22° C | 48% | 958 hPa | - | - | - | - |
| 1777790117 | 16.67° C | 49% | 958 hPa | - | - | - | - |
| 1777789756 | 16.11° C | 50% | 958 hPa | - | - | - | - |
| 1777789395 | 16.11° C | 50% | 958 hPa | - | - | - | - |
| 1777789035 | 15.56° C | 52% | 958 hPa | - | - | - | - |
| 1777788674 | 15.56° C | 52% | 958 hPa | - | - | - | - |
| 1777788313 | 15° C | 53% | 958 hPa | - | - | - | - |
| 1777787952 | 15° C | 54% | 958 hPa | - | - | - | - |
| 1777787592 | 14.44° C | 54% | 958 hPa | - | - | - | - |
| 1777787231 | 14.44° C | 56% | 958 hPa | - | - | - | - |
| 1777786870 | 14.44° C | 57% | 958 hPa | - | - | - | - |
| 1777786509 | 13.89° C | 57% | 958 hPa | - | - | - | - |
| 1777786149 | 13.89° C | 61% | 958 hPa | - | - | - | - |
| 1777785788 | 13.33° C | 60% | 958 hPa | - | - | - | - |
| 1777785427 | 13.33° C | 62% | 958 hPa | - | - | - | - |
| 1777785066 | 12.78° C | 63% | 958 hPa | - | - | - | - |
| 1777784706 | 12.78° C | 62% | 958 hPa | - | - | - | - |
| 1777784345 | 12.78° C | 61% | 959 hPa | - | - | - | - |
| 1777783984 | 12.78° C | 60% | 959 hPa | - | - | - | - |
| 1777783623 | 12.78° C | 61% | 959 hPa | - | - | - | - |
| 1777783263 | 12.78° C | 59% | 959 hPa | - | - | - | - |
* Rain since midnight (hover to see other rain measurements)
** Current wind speed in m/s (hover to see current wind gust speed)